TimeMST,TemperatureF,Dew PointF,Humidity,Sea Level PressureIn,VisibilityMPH,Wind Direction,Wind SpeedMPH,Gust SpeedMPH,PrecipitationIn,Events,Conditions,WindDirDegrees,DateUTC
12:55 AM,63.0,44.1,50,30.14,10.0,NNE,8.1,-,N/A,,Mostly Cloudy,20,2013-01-25 07:55:00
1:55 AM,62.1,44.1,52,30.13,10.0,NE,9.2,-,N/A,,Mostly Cloudy,40,2013-01-25 08:55:00
2:55 AM,61.0,45.0,56,30.12,10.0,NNE,3.5,-,N/A,,Mostly Cloudy,30,2013-01-25 09:55:00
3:55 AM,61.0,46.9,60,30.11,10.0,NNE,5.8,-,N/A,,Mostly Cloudy,30,2013-01-25 10:55:00
4:55 AM,60.1,46.9,62,30.10,10.0,NNE,3.5,-,N/A,,Mostly Cloudy,20,2013-01-25 11:55:00
5:55 AM,60.1,48.0,64,30.11,10.0,NNE,4.6,-,N/A,,Mostly Cloudy,20,2013-01-25 12:55:00
6:55 AM,60.1,48.0,64,30.11,10.0,NNE,4.6,-,N/A,,Mostly Cloudy,20,2013-01-25 13:55:00
7:55 AM,60.1,48.9,67,30.10,10.0,NNE,5.8,-,N/A,,Mostly Cloudy,20,2013-01-25 14:55:00
8:55 AM,62.1,48.9,62,30.11,10.0,NNE,8.1,-,N/A,,Mostly Cloudy,20,2013-01-25 15:55:00
9:55 AM,63.0,48.9,60,30.14,10.0,NNE,5.8,-,N/A,,Mostly Cloudy,30,2013-01-25 16:55:00
10:55 AM,66.9,48.9,52,30.12,10.0,NNE,8.1,-,N/A,,Mostly Cloudy,20,2013-01-25 17:55:00
11:55 AM,69.1,48.0,47,30.11,10.0,NE,10.4,-,N/A,,Mostly Cloudy,40,2013-01-25 18:55:00
12:55 PM,70.0,46.9,44,30.08,-9999.0,North,6.9,-,N/A,,Mostly Cloudy,350,2013-01-25 19:55:00
1:55 PM,70.0,46.0,42,30.04,7.0,North,10.4,-,N/A,,Overcast,350,2013-01-25 20:55:00
2:55 PM,69.1,48.0,47,30.03,7.0,North,6.9,-,0.00,Rain,Light Rain,360,2013-01-25 21:55:00
3:55 PM,64.0,55.0,73,30.01,7.0,NNW,8.1,-,0.01,Rain,Light Rain,330,2013-01-25 22:55:00
4:55 PM,64.0,55.0,73,29.99,7.0,NW,6.9,-,0.00,,Overcast,320,2013-01-25 23:55:00
5:55 PM,62.1,54.0,75,29.99,7.0,WNW,6.9,-,0.00,Rain,Light Rain,300,2013-01-26 00:55:00
6:26 PM,-9999,-9999,N/A,-9999,-9999.0,North,-9999.0,-,N/A,,Unknown,0,2013-01-26 01:26:00
6:55 PM,60.1,55.0,83,29.99,7.0,WNW,8.1,-,0.01,Rain,Light Rain,300,2013-01-26 01:55:00
7:55 PM,57.9,55.0,90,30.01,7.0,WNW,13.8,-,0.07,Rain,Rain,290,2013-01-26 02:55:00
8:55 PM,57.9,55.0,90,30.00,6.0,NNW,9.2,-,0.09,,Overcast,330,2013-01-26 03:55:00
9:55 PM,59.0,55.0,87,30.00,6.0,North,4.6,-,0.09,Rain,Light Rain,350,2013-01-26 04:55:00
10:55 PM,57.9,55.0,90,29.98,6.0,North,3.5,-,0.17,Rain,Light Rain,360,2013-01-26 05:55:00
11:20 PM,57.9,55.0,90,29.97,4.0,NW,3.5,-,N/A,Rain,Rain,310,2013-01-26 06:20:00
11:55 PM,57.9,55.0,90,29.97,4.0,WNW,4.6,-,0.18,Rain,Light Rain,300,2013-01-26 06:55:00